Miscellaneous Local Product
Issued by NWS North Platte, NE

Home | Current Version | Previous Version | Graphics & Text | Print | Product List | Glossary On
Versions: 1 2 3 4 5 6 7 8 9 10 11 12 13 14 15 16 17 18 19 20 21 22 23 24 25 26 27 28 29 30 31 32 33 34 35 36 37 38 39 40 41 42 43 44 45 46 47 48 49 50
000
AXUS43 KLBF 280210
MISLBF


WESTERN AND NORTH CENTRAL NEBRASKA HOURLY WEATHER ROUNDUP
NATIONAL WEATHER SERVICE NORTH PLATTE NE
900 PM CDT TUE SEP 27 2016

NOTE: "FAIR" INDICATES FEW OR NO CLOUDS BELOW 12,000 FEET WITH NO
SIGNIFICANT WEATHER AND/OR OBSTRUCTIONS TO VISIBILITY.

NOTE: STATIONS NOT REPORTING VARIABLES SUCH AS SKY/WEATHER OR
PRESSURE ARE PROVIDED BY RAWS AND APRS NETWORKS AND ARE NOT UNDER
NATIONAL WEATHER SERVICE QUALITY CONTROL.

...OBSERVATIONS IN AND NEAR THE EASTERN PANHANDLE OF NEBRASKA...

CITY           SKY/WX    TMP DP  RH WIND       PRES   REMARKS
PINE RIDGE     CLEAR     59  44  57 E5        30.03R
CHADRON        CLEAR     65  42  43 CALM      30.03R
ALLIANCE       CLEAR     62  38  40 N8        30.06R
SIDNEY         CLEAR     59  34  39 CALM      30.10R
CRESCENT LAKE    N/A     69  39  34 W7          N/A
$$

...OBSERVATIONS IN NORTHERN NEBRASKA AND FAR SOUTHERN SOUTH DAKOTA...

CITY           SKY/WX    TMP DP  RH WIND       PRES   REMARKS
WINNER         FAIR      68  43  40 CALM      29.96R
VALENTINE      CLEAR     60  40  47 NW5       29.98R
THEDFORD       CLEAR     64  44  48 CALM      29.99R
AINSWORTH      CLEAR     60  46  60 N7        29.98R
O`NEILL        CLEAR     63  44  50 N7        29.94R
ORD            CLEAR     62  41  46 NW5       29.92R
BROKEN BOW     CLEAR     61  43  51 N8        29.95R
VALENTINE NWR    N/A     64  42  45 CALM        N/A
BUTTE            N/A     65  46  50 N7          N/A
HALSEY           N/A     68  41  37 NW3         N/A
EWING            N/A     59  48  67 CALM        N/A
$$

...OBSERVATIONS IN SOUTHWEST NEBRASKA AND FAR NORTHEAST COLORADO...

CITY           SKY/WX    TMP DP  RH WIND       PRES   REMARKS
HOLYOKE        FAIR      63  36  36 N6        30.05S
IMPERIAL       CLEAR     66  41  40 NW3       30.02R
OGALLALA       CLEAR     63  38  39 W5        30.01S
NORTH PLATTE   CLEAR     65  42  43 CALM      29.97R
MCCOOK         CLEAR     64  44  48 W7        29.96R
LEXINGTON      CLEAR     58  48  69 N6        29.95R
STAPLETON        N/A     64  43  47 CALM        N/A
GOTHENBURG       N/A     76  38  25 NW3         N/A
CALLAWAY         N/A     69  47  45 N5          N/A
$$

...OBSERVATIONS IN CENTRAL LINCOLN COUNTY AREA...

CITY           SKY/WX    TMP DP  RH WIND       PRES   REMARKS
N.P. AIRPORT   CLEAR     65  42  43 CALM      29.97R
N.P. DOWNTOWN    N/A     69  43  39 CALM        N/A
N.P. SOUTHEAST   N/A     70  42  36 CALM        N/A
N.P. HILLCREST   N/A     70  42  35 NE10        N/A
$$

...SOME OBSERVATIONS FROM AROUND THE REGION...

CITY           SKY/WX    TMP DP  RH WIND       PRES   REMARKS
DENVER         CLEAR     71  22  15 NE3       30.15S
LARAMIE        CLEAR     59  27  29 N8        30.29R
CHEYENNE       CLEAR     65  25  22 NW6       30.21R
SCOTTSBLUFF    CLEAR     64  42  44 NE9       30.07R
RAPID CITY     CLEAR     67  43  41 N14       30.02R
BISMARCK       CLEAR     52  44  74 E5        29.98R
PIERRE         CLEAR     59  43  55 NE6       29.94R
SIOUX FALLS    CLEAR     57  44  62 N7        29.89R
OMAHA          CLEAR     63  52  67 W3        29.86R
GRAND ISLAND   CLEAR     65  48  54 N7        29.91R
KANSAS CITY    CLEAR     69  53  56 CALM      29.88R
WICHITA        CLEAR     65  57  75 S8        29.93R
OKLAHOMA CITY  CLEAR     63  51  65 S7        30.00R
DALLAS         PTCLDY    68  45  43 CALM      30.02S
AMARILLO       CLEAR     64  40  41 S8        30.11R
DODGE CITY     CLEAR     70  39  32 SW6       29.99S
HAYS           CLEAR     68  46  45 S3        29.95R
GOODLAND       CLEAR     63  38  39 CALM      30.04R
$$




USA.gov is the U.S. government's official web portal to all federal, state and local government web resources and services.